Location: Huntsville
(41.2590°N, 111.7678°W)
Time: 18:13:19
(UTC+00:00)

Courier 1B Rocket - Pass Details

Date: 16 June 2021
Orbit: 920 x 1202 km, 28.2° (Epoch: 24 July)

Event Time Altitude Azimuth Distance (km) Brightness Sun altitude
Rises 05:40:28 0° 246° (WSW) 3,602 8.0 -20.8°
Reaches altitude 10° 05:43:35 10° 233° (SW) 2,630 7.1 -21.0°
Enters shadow 05:46:15 20° 211° (SSW) 1,996 6.3 -21.2°
Maximum altitude 05:48:31 24° 181° (S) 1,783 - -21.4°
Drops below altitude 10° 05:53:25 10° 128° (SE) 2,605 - -21.8°
Sets 05:56:29 0° 115° (ESE) 3,560 - -22.0°
